Regional Weather Roundup
Issued by NWS Goodland, KS

Home | Current Version | Previous Version | Graphics & Text | Print | Product List | Glossary On
Versions: 1 2 3 4 5 6 7 8 9 10 11 12 13 14 15 16 17 18 19 20 21 22 23 24 25 26 27 28 29 30 31 32 33 34 35 36 37 38 39 40 41 42 43 44 45 46 47 48 49 50
000
ASUS43 KGLD 260259
RWRGLD

GOODLAND FORECAST AREA HOURLY WEATHER ROUNDUP
NATIONAL WEATHER SERVICE GOODLAND KS
900 PM MDT MON JUL 25 2016

...OFFICIAL OBSERVATIONS...

CITY           SKY/WX    TMP DP  RH WIND       PRES   REMARKS
GOODLAND KS    PTCLDY    73  64  73 SE8       30.12R
HILL CITY KS   CLEAR     73  66  78 E6        30.09R
IMPERIAL NEB   CLEAR     73  64  73 SE7       30.09F
MCCOOK NEB     CLEAR     76  62  62 SE9       30.09R
AKRON CO       CLOUDY    72  61  68 SE13      30.14S
BURLINGTON CO  CLOUDY    73  63  70 SE8       30.15R
LIMON CO       NOT AVBL
$$

...UNOFFICIAL OBSERVATIONS...

CITY           SKY/WX    TMP DP  RH WIND       PRES   REMARKS
COLBY KS       CLEAR     75  66  73 SE8       30.12R
LENORA KS        N/A     74  32  21 MISG        N/A
NORTON KS      CLEAR     73  57  56 E3        30.09R
$$



USA.gov is the U.S. government's official web portal to all federal, state and local government web resources and services.